Szolnok, Hungary

2:28 PM CET on February 22, 2017 (GMT +0100)
Szolnok

Weather History for LHSN - September, 2012

Change the Weather History Date:

Wednesday, September 19, 2012

  Actual Average (LHBP) Record (LHBP)
Temperature  
Mean Temperature 68 °F -  
Max Temperature 80 °F 67 °F 87 °F (2011)
Min Temperature 57 °F 48 °F 41 °F (2001)
Cooling Degree Days 4    
Growing Degree Days 18 (Base 50)    
Moisture  
Dew Point 54 °F    
Average Humidity 64    
Maximum Humidity 94    
Minimum Humidity 37    
Precipitation  
Precipitation 0.00 in - - ()
Sea Level Pressure  
Sea Level Pressure 29.86 in    
Wind  
Wind Speed 6 mph ()    
Max Wind Speed 18 mph    
Max Gust Speed 20 mph    
Visibility 5.3 miles    
Events Rain , Thunderstorm    
Averages and records for this station are not official NWS values.
T = Trace of Precipitation, MM = Missing Value Source: Averaged Metar Reports

Daily Weather History Graph

Daily Weather History Graph

Search for Another Location

Airport or City:

Trip Planner

Search our weather history database for the weather conditions in past years. The results will help you decide how hot, cold, wet, or windy it might be!

Date:

Astronomy

Sep. 19, 2012 Rise Set
Actual Time 6:22 AM CEST 6:42 PM CEST
Civil Twilight 5:51 AM CEST 7:12 PM CEST
Nautical Twilight 5:15 AM CEST 7:48 PM CEST
Astronomical Twilight 4:38 AM CEST 8:26 PM CEST
Moon 10:30 AM CEST (9/19) 8:16 PM CEST (9/19)
Length of Visible Light 13h 21m
Length of Day
12h 20m
Waxing Crescent, 14% of the Moon is Illuminated
Sep 19
Waxing Crescent
Sep 22
First Quarter
Sep 30
Full
Oct 8
Last Quarter
Oct 15
New

Hourly Weather History & Observations

Time (CEST) Temp. Dew Point Humidity Pressure Visibility Wind Dir Wind Speed Gust Speed Precip Events Conditions
12:15 AM 60.8 °F 51.8 °F 72% 29.92 in - Calm Calm - N/A   Clear
12:45 AM 60.8 °F 51.8 °F 72% 29.92 in - Calm Calm - N/A   Clear
1:15 AM 64.4 °F 53.6 °F 68% 29.92 in - South 2.2 mph - N/A   Clear
1:45 AM 64.4 °F 51.8 °F 64% 29.89 in - SSW 2.2 mph - N/A   Clear
2:15 AM 66.2 °F 51.8 °F 60% 29.89 in - SSW 6.7 mph - N/A   Clear
2:45 AM 64.4 °F 50.0 °F 59% 29.89 in - SSW 6.7 mph - N/A   Clear
3:15 AM 62.6 °F 50.0 °F 63% 29.89 in - South 4.5 mph - N/A   Clear
3:45 AM - - N/A% - 3.7 mi South 6.7 mph - N/A Rain Rain Showers
4:15 AM 59.0 °F 51.8 °F 77% 29.89 in - SSE 4.5 mph - N/A   Clear
5:15 AM 57.2 °F 50.0 °F 77% 29.86 in - South 2.2 mph - N/A   Clear
6:45 AM - - N/A% - 3.1 mi South 8.9 mph - N/A Rain , Thunderstorm Rain Showers
7:15 AM 60.8 °F 50.0 °F 68% 29.86 in - South 6.7 mph - N/A   Clear
7:45 AM 62.6 °F 50.0 °F 63% 29.86 in - South 6.7 mph - N/A   Clear
8:15 AM 64.4 °F 50.0 °F 59% 29.86 in - South 8.9 mph - N/A   Clear
8:45 AM 68.0 °F 50.0 °F 52% 29.86 in - South 8.9 mph 20.1 mph N/A   Clear
9:15 AM 69.8 °F 50.0 °F 49% 29.86 in - South 15.7 mph - N/A   Clear
9:45 AM - - N/A% - 3.1 mi SSW 8.9 mph - N/A Rain , Thunderstorm Rain Showers
10:15 AM - - N/A% - 3.1 mi SSW 8.9 mph - N/A Rain , Thunderstorm Rain Showers
10:45 AM 75.2 °F 50.0 °F 41% 29.86 in - South 15.7 mph - N/A   Clear
11:15 AM 77.0 °F 51.8 °F 41% 29.86 in - SSW 11.2 mph - N/A   Clear
11:45 AM 78.8 °F 51.8 °F 39% 29.86 in - SSW 13.4 mph - N/A   Clear
12:15 PM 78.8 °F 51.8 °F 39% 29.86 in - SSW 11.2 mph - N/A   Clear
12:45 PM - - N/A% - 3.1 mi SSW 8.9 mph - N/A Rain , Thunderstorm Rain Showers
1:15 PM 78.8 °F 51.8 °F 39% 29.86 in - SSW 11.2 mph - N/A   Clear
1:45 PM 80.6 °F 51.8 °F 37% 29.83 in - SSW 8.9 mph - N/A   Clear
2:15 PM 80.6 °F 51.8 °F 37% 29.83 in 6.2 mi SSW 6.7 mph - N/A   Mostly Cloudy
2:45 PM 78.8 °F 51.8 °F 39% 29.83 in 6.2 mi SSW 6.7 mph - N/A   Mostly Cloudy
3:15 PM 78.8 °F 51.8 °F 39% 29.80 in 6.2 mi SSW 4.5 mph - N/A   Mostly Cloudy
3:37 PM 78.8 °F 51.8 °F 39% 29.80 in 6.2 mi SSW 6.7 mph - N/A Rain , Thunderstorm Light Thunderstorms and Rain
3:44 PM 75.2 °F 57.2 °F 53% 29.80 in 6.2 mi SW 17.9 mph - N/A Rain , Thunderstorm Light Thunderstorms and Rain
3:45 PM - - N/A% - 6.2 mi SW 8.9 mph - N/A   Overcast
4:15 PM 69.8 °F 60.8 °F 73% 29.80 in 6.2 mi NW 8.9 mph - N/A Thunderstorm Thunderstorm
4:39 PM 71.6 °F 57.2 °F 60% 29.83 in 6.2 mi WSW 11.2 mph - N/A Rain , Thunderstorm Light Thunderstorms and Rain
4:45 PM 69.8 °F 57.2 °F 64% 29.83 in 6.2 mi WNW 13.4 mph - N/A Rain , Thunderstorm Light Thunderstorms and Rain
5:15 PM 64.4 °F 59.0 °F 83% 29.83 in 5.6 mi WNW 11.2 mph - N/A Rain Light Rain Showers
5:45 PM 62.6 °F 59.0 °F 88% 29.83 in 6.2 mi West 8.9 mph - N/A Rain Light Rain Showers
6:15 PM 62.6 °F 59.0 °F 88% 29.83 in 6.2 mi NNW 6.7 mph - N/A   Mostly Cloudy
6:45 PM - - N/A% - 6.2 mi NW 8.9 mph - N/A   Overcast
7:15 PM 64.4 °F 59.0 °F 83% 29.86 in 6.2 mi West 11.2 mph - N/A Rain Light Rain Showers
7:45 PM 62.6 °F 60.8 °F 94% 29.83 in 6.2 mi West 6.7 mph - N/A Rain Light Rain Showers
8:15 PM 64.4 °F 60.8 °F 88% 29.86 in 3.7 mi WNW 4.5 mph - N/A Rain Light Rain Showers
8:45 PM 62.6 °F 60.8 °F 94% 29.86 in 3.1 mi WNW 6.7 mph - N/A Rain Light Rain Showers
9:15 PM 62.6 °F 60.8 °F 94% 29.86 in 3.1 mi NW 4.5 mph - N/A Rain Light Rain Showers
9:45 PM - - N/A% - 6.2 mi NW 11.2 mph - N/A   Overcast
10:45 PM 59.0 °F 53.6 °F 82% 29.89 in 6.2 mi NNW 8.9 mph - N/A   Mostly Cloudy
11:15 PM 59.0 °F 53.6 °F 82% 29.89 in 6.2 mi NW 11.2 mph - N/A   Mostly Cloudy
11:45 PM 59.0 °F 51.8 °F 77% 29.89 in 6.2 mi NW 11.2 mph - N/A   Mostly Cloudy